"Platform","Reno Beach Station"
"Latitude (deg)",41.68
"Longitude (deg)",-83.25
"Water Depth (m)","7 to 8"
"Sensor Device","AirLink GX440 Cell Modem Radio"
"Sensor Type","Data Transfer Rate"
"Sensor Units","Kbits/s = 1000 bits per second"
"Measurement","A sample"
"Time means","Time at sample (UTC time zone)"

"Note:","This data was collected for research purposes."
"Note:","Minimal quality checking has been performed so data may contain known or unknown errors."
"Note:","Data provided by NOAA. Please credit NOAA."
"Note:","For more info see www.glerl.noaa.gov/res/recon"

"Time (UTC)","Rate"
"YYYY/MM/DD HH:MM","Kbits/s"
2019/05/13 00:22, 2083
2019/05/13 01:22, 2272
2019/05/13 02:22, 2000
2019/05/13 03:22, 2222
2019/05/13 04:22, 2325
2019/05/13 05:22, 2040
2019/05/13 06:22, 1449
2019/05/13 07:22, 1851
2019/05/13 08:22, 1960
2019/05/13 09:22, 2439
2019/05/13 10:22, 2325
2019/05/13 11:22, 2380
2019/05/13 12:22, 2272
2019/05/13 13:22, 2325
2019/05/13 14:22, 2380
2019/05/13 14:54, 588
2019/05/13 14:58, 625
2019/05/13 15:22, 588
2019/05/13 16:22, 588
2019/05/13 17:22, 588
2019/05/13 18:22, 588
2019/05/13 19:22, 588
2019/05/13 20:22, 588
2019/05/13 21:22, 588
2019/05/13 22:22, 526
2019/05/13 23:22, 588
2019/05/14 00:22, 625
2019/05/14 01:22, 588
2019/05/14 02:22, 588
2019/05/14 03:22, 625
2019/05/14 04:22, 588
2019/05/14 06:22, 588
2019/05/14 07:22, 588
2019/05/14 08:22, 500
2019/05/14 09:22, 526
2019/05/14 10:22, 500
2019/05/14 11:22, 588
2019/05/14 12:22, 588
2019/05/14 13:22, 588
2019/05/14 14:22, 588
2019/05/14 15:22, 555
2019/05/14 16:22, 555
2019/05/14 17:22, 588
2019/05/14 18:22, 588
2019/05/14 19:22, 588
2019/05/14 20:22, 588
2019/05/14 21:22, 588
2019/05/14 22:22, 555
2019/05/14 23:22, 625
2019/05/15 00:22, 588
2019/05/15 01:22, 555
2019/05/15 02:22, 434
2019/05/15 03:22, 588
2019/05/15 04:22, 555
2019/05/15 05:22, 625
2019/05/15 06:22, 555
2019/05/15 07:22, 625
2019/05/15 08:22, 588
2019/05/15 09:22, 588
2019/05/15 10:22, 555
2019/05/15 11:22, 588
2019/05/15 12:22, 588
2019/05/15 13:22, 588
2019/05/15 14:22, 555
2019/05/15 15:22, 555
2019/05/15 16:22, 555
2019/05/15 17:22, 588
2019/05/15 18:22, 588
2019/05/15 19:22, 555
2019/05/15 20:22, 588
2019/05/15 21:22, 555
2019/05/15 22:22, 588
2019/05/15 23:22, 588
2019/05/16 00:22, 588
2019/05/16 01:22, 588
2019/05/16 02:22, 588
2019/05/16 03:22, 588
2019/05/16 04:22, 588
2019/05/16 05:22, 588
2019/05/16 06:22, 555
2019/05/16 07:22, 588
2019/05/16 08:22, 400
2019/05/16 09:22, 588
2019/05/16 10:22, 588
2019/05/16 11:22, 588
2019/05/16 12:22, 588
2019/05/16 13:22, 555
2019/05/16 14:22, 666
2019/05/16 15:22, 625
2019/05/16 16:22, 500
2019/05/16 17:22, 714
2019/05/16 18:22, 588
2019/05/16 19:22, 625
2019/05/16 20:22, 588
2019/05/16 21:22, 625
2019/05/16 22:22, 625
2019/05/16 23:22, 666
2019/05/17 00:22, 555
2019/05/17 01:22, 666
2019/05/17 02:22, 625
2019/05/17 03:22, 625
2019/05/17 04:22, 666
2019/05/17 05:22, 666
2019/05/17 06:22, 588
2019/05/17 07:22, 625
2019/05/17 08:22, 666
2019/05/17 09:22, 666
2019/05/17 10:22, 666
2019/05/17 11:22, 625
2019/05/17 12:22, 625
2019/05/17 13:22, 666
2019/05/17 14:22, 666
2019/05/17 15:22, 666
2019/05/17 16:22, 625
2019/05/17 17:22, 625
2019/05/17 18:22, 666
2019/05/17 19:22, 588
2019/05/17 20:22, 625
2019/05/17 21:22, 666
2019/05/17 22:22, 625
2019/05/17 23:22, 666
2019/05/18 00:22, 666
2019/05/18 01:22, 588
2019/05/18 02:22, 666
2019/05/18 03:22, 625
2019/05/18 04:22, 625
2019/05/18 05:22, 625
2019/05/18 06:22, 666
2019/05/18 07:22, 625
2019/05/18 08:22, 666
2019/05/18 09:22, 666
2019/05/18 10:22, 625
2019/05/18 11:22, 666
2019/05/18 12:22, 625
2019/05/18 13:22, 588
2019/05/18 14:22, 588
2019/05/18 15:22, 625
2019/05/18 16:22, 666
2019/05/18 17:22, 666
2019/05/18 18:22, 625
2019/05/18 19:22, 666
2019/05/18 20:22, 666
2019/05/18 21:22, 625
2019/05/18 22:22, 625
2019/05/18 23:22, 625
2019/05/19 00:22, 625
2019/05/19 01:22, 666
2019/05/19 02:22, 625
2019/05/19 03:22, 666
2019/05/19 04:22, 666
2019/05/19 05:22, 416
2019/05/19 06:22, 588
2019/05/19 07:22, 666
2019/05/19 08:22, 666
2019/05/19 09:22, 666
2019/05/19 10:22, 666
2019/05/19 11:22, 625
2019/05/19 12:22, 625
2019/05/19 13:22, 625
2019/05/19 14:22, 666
2019/05/19 15:22, 666
2019/05/19 16:22, 666
2019/05/19 17:22, 666
2019/05/19 18:22, 666
2019/05/19 19:22, 625
2019/05/19 20:22, 666
2019/05/19 21:22, 625
2019/05/19 22:22, 588
2019/05/19 23:22, 666
2019/05/20 00:22, 625
2019/05/20 01:22, 666
2019/05/20 02:22, 666
2019/05/20 03:22, 666
2019/05/20 04:22, 588
2019/05/20 05:22, 416
2019/05/20 06:22, 588
2019/05/20 07:22, 625
2019/05/20 08:22, 666
2019/05/20 09:22, 666
2019/05/20 10:22, 625
2019/05/20 11:22, 625
2019/05/20 12:22, 625
2019/05/20 13:22, 555
2019/09/19 18:06, 2111.2
